Location: Unspecified
(52.1971°N, 0.0000°E)
Time: 21:56:36
(UTC+00:00)

YUBILEINY - Pass Details

Date: 21 December 2019
Orbit: 1478 x 1509 km, 82.5° (Epoch: 19 January)

Event Time Altitude Azimuth Distance (km) Brightness Sun altitude
Rises 04:17:15 0° 345° (NNW) 4,612 ? -33.6°
Reaches altitude 10° 04:21:47 10° 6° (N) 3,630 ? -32.9°
Maximum altitude 04:26:51 16° 42° (NE) 3,156 ? -32.1°
Drops below altitude 10° 04:31:54 10° 78° (ENE) 3,628 ? -31.3°
Sets 04:36:23 0° 99° (E) 4,609 ? -30.7°
